Warrensburg, MO

10:17 AM CDT on March 29, 2017 (GMT -0500)
Skyhaven

Weather History for KRCM - October, 2014

Change the Weather History Date:

Thursday, October 9, 2014

  Actual Average (KSZL) Record (KSZL)
Temperature  
Mean Temperature 56 °F -  
Max Temperature 60 °F 68 °F 82 °F (2007)
Min Temperature 53 °F 48 °F 28 °F (2000)
Degree Days  
Heating Degree Days 8    
Growing Degree Days 6 (Base 50)    
Moisture  
Dew Point 55 °F    
Average Humidity 92    
Maximum Humidity 100    
Minimum Humidity 77    
Precipitation  
Precipitation 1.17 in - - ()
Sea Level Pressure  
Sea Level Pressure 30.01 in    
Wind  
Wind Speed 7 mph (NE)    
Max Wind Speed 13 mph    
Max Gust Speed 21 mph    
Visibility 7 miles    
Events Rain , Thunderstorm    
Averages and records for this station are not official NWS values.
T = Trace of Precipitation, MM = Missing Value Source: NWS Daily Summary

Daily Weather History Graph

Daily Weather History Graph

Search for Another Location

Airport or City:

Trip Planner

Search our weather history database for the weather conditions in past years. The results will help you decide how hot, cold, wet, or windy it might be!

Date:

Astronomy

Oct. 09, 2014 Rise Set
Actual Time 7:18 AM CDT 6:45 PM CDT
Civil Twilight 6:52 AM CDT 7:12 PM CDT
Nautical Twilight 6:21 AM CDT 7:42 PM CDT
Astronomical Twilight 5:50 AM CDT 8:13 PM CDT
Moon 7:43 PM CDT (10/9) 8:33 AM CDT (10/9)
Length of Visible Light 12h 20m
Length of Day
11h 26m
Full, 98% of the Moon is Illuminated
Oct 9
Full
Oct 15
Last Quarter
Oct 23
New
Oct 30
First Quarter
Nov 6
Full

Hourly Weather History & Observations

Time (CDT) Temp. Dew Point Humidity Pressure Visibility Wind Dir Wind Speed Gust Speed Precip Events Conditions
12:35 AM 60.8 °F 53.6 °F 77% 29.98 in 10.0 mi ENE 5.8 mph - N/A   Mostly Cloudy
12:55 AM 60.8 °F 53.6 °F 77% 29.96 in 10.0 mi East 4.6 mph - N/A   Overcast
1:55 AM 59.0 °F 53.6 °F 82% 29.96 in 10.0 mi North 4.6 mph - N/A   Overcast
2:15 AM 59.0 °F 53.6 °F 82% 29.97 in 10.0 mi Calm Calm - N/A   Overcast
2:35 AM 59.0 °F 53.6 °F 82% 29.96 in 10.0 mi Calm Calm - N/A   Mostly Cloudy
2:55 AM 59.0 °F 55.4 °F 88% 29.97 in 10.0 mi North 3.5 mph - N/A Thunderstorm Mostly Cloudy
3:15 AM 59.0 °F 53.6 °F 82% 29.97 in 10.0 mi NNE 6.9 mph - N/A Thunderstorm Overcast
3:35 AM 59.0 °F 55.4 °F 88% 30.00 in 10.0 mi North 11.5 mph - N/A   Overcast
3:55 AM 59.0 °F 53.6 °F 82% 30.01 in 10.0 mi North 11.5 mph 18.4 mph N/A   Overcast
4:15 AM 59.0 °F 53.6 °F 82% 30.01 in 10.0 mi NE 8.1 mph - N/A   Overcast
4:35 AM 59.0 °F 53.6 °F 82% 30.01 in 10.0 mi ENE 9.2 mph - N/A   Overcast
4:55 AM 57.2 °F 53.6 °F 88% 30.03 in 10.0 mi North 9.2 mph - N/A   Overcast
5:15 AM 57.2 °F 53.6 °F 88% 30.04 in 10.0 mi North 9.2 mph - N/A Thunderstorm Overcast
5:35 AM 55.4 °F 53.6 °F 94% 30.02 in 10.0 mi NE 5.8 mph - N/A   Overcast
5:55 AM 55.4 °F 53.6 °F 94% 30.01 in 10.0 mi East 8.1 mph - N/A   Overcast
6:15 AM 57.2 °F 53.6 °F 88% 30.01 in 10.0 mi ENE 8.1 mph - N/A Thunderstorm Overcast
6:35 AM 57.2 °F 53.6 °F 88% 30.00 in 10.0 mi East 6.9 mph - N/A   Overcast
6:55 AM 57.2 °F 53.6 °F 88% 29.99 in 10.0 mi East 8.1 mph - N/A   Overcast
7:15 AM 59.0 °F 55.4 °F 88% 29.99 in 10.0 mi ESE 5.8 mph - N/A Thunderstorm Overcast
7:35 AM 59.0 °F 55.4 °F 88% 30.01 in 5.0 mi North 12.7 mph 20.7 mph N/A Rain , Thunderstorm Thunderstorms and Rain
7:55 AM 59.0 °F 57.2 °F 94% 30.04 in 2.0 mi North 4.6 mph - 0.13 in Rain , Thunderstorm Heavy Thunderstorms and Rain
8:15 AM 59.0 °F 57.2 °F 94% 30.01 in 1.8 mi ENE 9.2 mph - 0.18 in Rain Heavy Rain
8:35 AM 59.0 °F 59.0 °F 100% 30.01 in 10.0 mi East 3.5 mph - 0.20 in Rain Rain
8:55 AM 60.8 °F 59.0 °F 94% 30.01 in 10.0 mi East 4.6 mph - 0.20 in Thunderstorm Unknown
9:15 AM 60.8 °F 59.0 °F 94% 30.01 in 10.0 mi East 5.8 mph - 0.01 in Rain Light Rain
9:35 AM 60.8 °F 59.0 °F 94% 29.99 in 10.0 mi NE 6.9 mph - 0.01 in Rain Light Rain
9:55 AM 60.8 °F 59.0 °F 94% 30.01 in 3.0 mi NE 4.6 mph - 0.06 in Rain Heavy Rain
10:15 AM 60.8 °F 59.0 °F 94% 29.99 in 10.0 mi East 11.5 mph 18.4 mph 0.01 in Rain , Thunderstorm Light Thunderstorms and Rain
10:35 AM 60.8 °F 59.0 °F 94% 29.99 in 10.0 mi East 8.1 mph 17.3 mph 0.01 in Thunderstorm Overcast
10:55 AM 60.8 °F 59.0 °F 94% 30.04 in 7.0 mi NE 6.9 mph 19.6 mph 0.05 in Rain , Thunderstorm Heavy Thunderstorms and Rain
11:15 AM 60.8 °F 59.0 °F 94% 30.03 in 2.0 mi ESE 6.9 mph - 0.16 in Rain , Thunderstorm Heavy Thunderstorms and Rain
11:35 AM 60.8 °F 59.0 °F 94% 30.02 in 7.0 mi ESE 8.1 mph - 0.22 in Rain , Thunderstorm Light Thunderstorms and Rain
11:55 AM 60.8 °F 59.0 °F 94% 30.02 in 7.0 mi East 4.6 mph - 0.24 in Rain , Thunderstorm Thunderstorms and Rain
12:15 PM 60.8 °F 59.0 °F 94% 30.03 in 5.0 mi NNW 3.5 mph - 0.05 in Rain , Thunderstorm Thunderstorms and Rain
1:15 PM 60.8 °F 59.0 °F 94% 29.98 in 10.0 mi NNE 9.2 mph - N/A   Overcast
1:35 PM 60.8 °F 59.0 °F 94% 29.99 in 10.0 mi NNE 6.9 mph - N/A   Overcast
1:55 PM 60.8 °F 59.0 °F 94% 29.98 in 10.0 mi NE 5.8 mph - N/A   Overcast
2:15 PM 59.0 °F 55.4 °F 88% 29.96 in 7.0 mi NNE 9.2 mph - N/A   Overcast
2:35 PM 59.0 °F 55.4 °F 88% 29.96 in 7.0 mi NNE 9.2 mph 17.3 mph N/A   Overcast
2:55 PM 59.0 °F 55.4 °F 88% 29.96 in 7.0 mi NNE 11.5 mph 16.1 mph N/A   Overcast
3:15 PM 57.2 °F 55.4 °F 94% 29.97 in 7.0 mi NNE 8.1 mph - N/A   Overcast
3:35 PM 57.2 °F 55.4 °F 94% 29.97 in 2.5 mi NNE 11.5 mph 18.4 mph N/A   Overcast
3:55 PM 55.4 °F 55.4 °F 100% 30.00 in 1.5 mi NNE 10.4 mph - N/A   Overcast
4:15 PM 55.4 °F 55.4 °F 100% 30.00 in 1.2 mi NNE 9.2 mph - N/A   Overcast
4:35 PM 55.4 °F 55.4 °F 100% 30.00 in 1.2 mi NNE 10.4 mph - N/A   Overcast
4:55 PM 55.4 °F 55.4 °F 100% 29.98 in 1.2 mi NNE 10.4 mph 18.4 mph N/A   Overcast
5:15 PM 55.4 °F 55.4 °F 100% 30.00 in 1.8 mi NNE 9.2 mph - N/A   Overcast
5:35 PM 55.4 °F 55.4 °F 100% 30.01 in 1.8 mi NNE 6.9 mph - N/A   Overcast
5:55 PM 55.4 °F 55.4 °F 100% 30.02 in 2.5 mi NNE 6.9 mph - N/A   Overcast
6:15 PM 55.4 °F 55.4 °F 100% 30.01 in 3.0 mi NNE 8.1 mph - N/A   Overcast
6:35 PM 55.4 °F 53.6 °F 94% 30.01 in 5.0 mi NNE 9.2 mph - N/A   Overcast
6:55 PM 55.4 °F 53.6 °F 94% 30.01 in 4.0 mi NNE 9.2 mph 17.3 mph N/A   Overcast
7:15 PM 55.4 °F 53.6 °F 94% 30.02 in 5.0 mi NNE 9.2 mph - N/A Rain , Thunderstorm Rain
7:35 PM 55.4 °F 53.6 °F 94% 30.03 in 7.0 mi NE 8.1 mph - 0.02 in Rain , Thunderstorm Rain
7:55 PM 55.4 °F 53.6 °F 94% 30.05 in 5.0 mi NE 5.8 mph - 0.05 in Rain Light Rain
8:15 PM 55.4 °F 53.6 °F 94% 30.05 in 4.0 mi NE 4.6 mph - 0.05 in Rain , Thunderstorm Thunderstorms and Rain
8:35 PM 55.4 °F 53.6 °F 94% 30.05 in 3.0 mi NE 5.8 mph - 0.16 in Rain Heavy Rain
8:55 PM 53.6 °F 53.6 °F 100% 30.03 in 3.0 mi NE 9.2 mph - 0.25 in Rain Rain
9:15 PM 53.6 °F 53.6 °F 100% 30.03 in 5.0 mi NE 8.1 mph - 0.03 in Rain Rain
9:35 PM 53.6 °F 53.6 °F 100% 30.02 in 5.0 mi NE 8.1 mph - 0.07 in Rain Rain
9:55 PM 53.6 °F 53.6 °F 100% 30.04 in 7.0 mi NE 5.8 mph - 0.09 in Rain Light Rain
10:15 PM 53.6 °F 53.6 °F 100% 30.07 in 7.0 mi North 5.8 mph - 0.01 in Rain Light Rain
10:35 PM 53.6 °F 53.6 °F 100% 30.06 in 7.0 mi NNE 6.9 mph - 0.02 in Rain Light Rain
10:55 PM 53.6 °F 51.8 °F 94% 30.04 in 7.0 mi NE 9.2 mph 17.3 mph 0.03 in Rain Rain
11:15 PM 53.6 °F 51.8 °F 94% 30.04 in 7.0 mi NE 9.2 mph - 0.01 in Rain Light Rain
11:35 PM 53.6 °F 51.8 °F 94% 30.04 in 7.0 mi NE 6.9 mph - 0.02 in Rain Rain
11:55 PM 53.6 °F 51.8 °F 94% 30.04 in 10.0 mi NNE 5.8 mph - 0.02 in   Light Drizzle